Location: Rometta
(44.2000°N, 10.0500°E)
Time: 23:01:00
(UTC+00:00)

Cosmos 2098 Rocket - Pass Details

Date: 20 January 2021
Orbit: 366 x 1182 km, 82.9° (Epoch: 04 March)

Event Time Altitude Azimuth Distance (km) Brightness Sun altitude
Rises 18:20:19 0° 173° (S) 3,784 7.1 -22.4°
Reaches altitude 10° 18:22:48 10° 170° (S) 2,916 6.4 -22.9°
Maximum altitude 18:29:40 63° 92° (E) 1,293 4.3 -24.1°
Drops below altitude 10° 18:37:00 10° 14° (NNE) 3,113 6.4 -25.4°
Sets 18:39:43 0° 11° (NNE) 4,055 7.1 -25.9°
